Каньон Кагель

США     34°20′00″N   118°23′06″W
темп.,
°C
ветер,
м/с
пор.,
м/с
влажн.,
%
обл.,
%
осадки,
мм/ч
давл.,
гПа
погр.,
м
16 октября, сб
сб1623:00+21с34120 0.0 1017130
02:00+19с34120 0.0 1017107
05:00+18с33120 0.0 101790
08:00+18с34140 0.0 1017119
11:00+26с1290 0.0 1016574
14:00+29юз2260 0.0 10141552
17:00+28ю3270 0.0 1013872
20:00+23сз23121 0.0 101494
17 октября, вс
вс1723:00+22св11146 0.0 101514
02:00+20вюв231954 0.0 101575
05:00+19юв22263 0.0 101459
08:00+18юв123196 0.0 1015110
11:00+22ююв33230 0.0 1015818
14:00+24ю55170 0.0 10131447
17:00+22ю44210 0.0 10131177
20:00+18ю23340 0.0 1014568
18 октября, пн
пн1823:00+16ю22450 0.0 1015480
02:00+15ююв22590 0.0 1015586
05:00+14ююв23695 0.0 1014656
08:00+14ююв237213 0.0 1015647
11:00+16ю335996 0.1 10141320
14:00+16юв545697 0.1 10131106
17:00+16ююв435262 0.1 10131064
20:00+15юв225424 0.0 1014746
19 октября, вт
вт1923:00+14юв23550 0.0 1015648
02:00+13юв22574 0.0 1015531
05:00+13юв12582 0.0 1015383
08:00+13ю11630 0.0 1016379
11:00+17ююв11430 0.0 1016687
14:00+20ю32326 0.0 10151010
17:00+20ю32368 0.0 1014831
20:00+17з2151100 0.0 1016417
20 октября, ср
ср2023:00+15зюз1155100 0.0 1017262
02:00+15вюв01586 0.0 1017169
05:00+15зсз11589 0.0 101742
08:00+15с11535 0.0 101883
11:00+19ююз213739 0.0 1019467
14:00+23ю212777 0.0 1017875
17:00+23ююз2130100 0.0 1016739
20:00+19зсз113983 0.0 1018195